[[{"header":{"parameterUnit":"m.s-1","parameterCategory":1,"la1":30.2991,"la2":30.254,"lo1":-89.0895,"lo2":-89.0444,"dy":0.0017,"dx":0.0017,"nx":28,"ny":28,"refTime":"2024-10-09T09:00:00:Z","depth":0,"parameterNumber":2,"parameterNumberName":"U-component_of_WINDS"},"data":[0,0,0,0,0,0,0,0,0,0,0,0,0,0,0,0,0,0,0,0,0,0,0,0,0,0,0,0,0,0,0,0,0,0,0,0,0,0,0,0,0,0,0,0,0,0,0,0,0,0,0,0,0,0,0,0,0,0,-0.2302,-0.2303,0,-0.2396,-0.2397,-0.2398,-0.2427,-0.2427,-0.2426,-0.2426,-0.2525,-0.2528,-0.2531,0,0,0,0,0,0,0,0,0,0,0,0,0,-0.2149,-0.2152,-0.2302,-0.2303,-0.2304,-0.2396,-0.2397,-0.2399,-0.2427,-0.2427,-0.2426,-0.2426,-0.2524,-0.2528,-0.2531,0,0,0,0,0,0,0,0,0,0,0,0,0,-0.2227,-0.2153,-0.2302,-0.2329,-0.2333,-0.2396,-0.2397,-0.2399,-0.2427,-0.2427,-0.2426,-0.2425,-0.2523,-0.2527,-0.2532,-0.2575,0,0,-0.2546,-0.2548,0,0,0,0,0,0,0,0,-0.2222,-0.2232,-0.2324,-0.2328,-0.2332,-0.2399,-0.238,-0.2458,-0.2428,-0.2392,-0.2426,-0.2425,-0.2484,-0.2492,-0.2511,-0.258,-0.2584,-0.2547,-0.2549,-0.2551,-0.2553,0,0,0,0,0,0,0,-0.2217,-0.2228,-0.2339,-0.2325,-0.233,-0.2338,-0.2348,-0.2395,-0.2441,-0.2395,-0.2397,-0.2408,-0.2486,-0.2507,-0.2514,-0.2585,-0.2546,-0.2551,-0.2553,-0.2555,-0.2695,-0.2695,0,0,0,0,0,0,-0.2206,-0.2224,-0.2336,-0.2342,-0.2274,-0.2341,-0.2353,-0.2378,-0.244,-0.2449,-0.2408,-0.2409,-0.2499,-0.2508,-0.2517,-0.2572,-0.2551,-0.2556,-0.2558,-0.2694,-0.2695,-0.2696,0,0,0,0,0,0,-0.2203,-0.2216,-0.2332,-0.2284,-0.2299,-0.2345,-0.2373,-0.238,-0.2401,-0.245,-0.2459,-0.2421,-0.2499,-0.2511,-0.256,-0.2576,-0.2558,-0.2562,-0.2693,-0.2694,-0.2695,-0.2682,0,0,0,0,0,0,-0.2199,-0.2215,-0.2231,-0.2284,-0.2301,-0.2373,-0.2374,-0.2383,-0.2409,-0.241,-0.2464,-0.2473,-0.2499,-0.2553,-0.2565,-0.2582,-0.2566,-0.2691,-0.2693,-0.2695,-0.2681,-0.2683,-0.2684,0,0,0,0,0,-0.2193,-0.2224,-0.2232,-0.2245,-0.2322,-0.2374,-0.2384,-0.2413,-0.241,-0.2427,-0.2459,-0.2471,-0.2572,-0.2558,-0.2571,-0.259,-0.2691,-0.2693,-0.2695,-0.2681,-0.2683,-0.2684,0,0,0,0,0,0,-0.2173,-0.2231,-0.2241,-0.2289,-0.2326,-0.2379,-0.2401,-0.2414,-0.2453,-0.2453,-0.2488,-0.25,-0.2548,-0.2574,-0.2557,-0.2636,-0.2632,-0.2637,-0.2617,-0.2619,-0.262,-0.2614,-0.2569,0,0,0,0,0,-0.2174,-0.221,-0.2259,-0.2298,-0.2316,-0.2355,-0.2378,-0.2397,-0.2438,-0.2454,-0.2489,-0.2528,-0.2569,-0.2595,-0.2636,-0.2685,-0.2698,-0.2705,-0.2706,-0.2707,-0.2711,-0.274,-0.2744,-0.2703,-0.2703,-0.2702,0,0,-0.2177,-0.2213,-0.2234,-0.2294,-0.2325,-0.2363,-0.2368,-0.2407,-0.2436,-0.246,-0.2509,-0.2536,-0.2583,-0.2632,-0.2656,-0.2656,-0.2725,-0.271,-0.271,-0.2714,-0.2743,-0.2747,-0.275,-0.2704,-0.2704,-0.2703,0,0,-0.2201,-0.2232,-0.2268,-0.2298,-0.2345,-0.2371,-0.2379,-0.2429,-0.2448,-0.2498,-0.2517,-0.2552,-0.2621,-0.2653,-0.2679,-0.2715,-0.2729,-0.2727,-0.2735,-0.2763,-0.2766,-0.2769,-0.2784,-0.2788,-0.2731,-0.2731,-0.2731,0,-0.2199,-0.2256,-0.2284,-0.2323,-0.2349,-0.2372,-0.2409,-0.2437,-0.2495,-0.2513,-0.2511,-0.2599,-0.2632,-0.269,-0.2699,-0.2718,-0.273,-0.2722,-0.2763,-0.2767,-0.277,-0.2784,-0.2789,-0.2731,-0.2731,-0.2731,-0.2731,0,-0.2252,-0.229,-0.2314,-0.2368,-0.2397,-0.2434,-0.2469,-0.2496,-0.2512,-0.2538,-0.2589,-0.2629,-0.2678,-0.2693,-0.2709,-0.2753,-0.2752,-0.2756,-0.2754,-0.2773,-0.2787,-0.2792,-0.273,-0.273,-0.273,-0.273,0,0,-0.2267,-0.2336,-0.2344,-0.2369,-0.2422,-0.2453,-0.2492,-0.2539,-0.2561,-0.26,-0.2634,-0.2692,-0.2696,-0.2725,-0.2746,-0.277,-0.2798,-0.2772,-0.2773,-0.2776,-0.285,-0.2847,-0.2853,-0.2806,-0.2807,-0.2808,-0.2847,0,-0.2299,-0.2368,-0.2395,-0.2452,-0.2489,-0.2511,-0.2545,-0.2581,-0.2607,-0.2643,-0.2671,-0.2712,-0.2714,-0.2732,-0.2757,-0.2789,-0.2813,-0.2786,-0.284,-0.2841,-0.2829,-0.286,-0.2857,-0.2891,-0.2852,-0.2853,-0.2854,0,-0.2346,-0.2384,-0.2445,-0.2493,-0.251,-0.254,-0.2585,-0.2618,-0.2661,-0.2678,-0.271,-0.2729,-0.2771,-0.2765,-0.2825,-0.2806,-0.2829,-0.2848,-0.285,-0.2857,-0.2849,-0.2869,-0.2903,-0.2908,-0.2862,-0.2861,-0.2861,0,-0.2352,-0.2419,-0.2464,-0.2485,-0.2542,-0.2563,-0.2588,-0.2629,-0.2656,-0.2696,-0.2714,-0.2758,-0.2783,-0.2818,-0.2849,-0.2841,-0.2906,-0.2902,-0.2922,-0.2922,-0.2936,-0.2935,-0.2975,-0.2949,-0.2949,-0.2949,-0.2949,0,-0.2386,-0.2423,-0.2468,-0.2496,-0.2537,-0.2568,-0.2609,-0.2636,-0.2672,-0.2706,-0.2728,-0.2759,-0.2798,-0.2835,-0.2859,-0.2906,-0.2916,-0.2932,-0.2939,-0.2931,-0.2929,-0.2948,-0.2947,-0.295,-0.295,-0.295,-0.2949,0,-0.2401,-0.2433,-0.2483,-0.2533,-0.2547,-0.2575,-0.2618,-0.2647,-0.2673,-0.2716,-0.2728,-0.277,-0.2814,-0.2848,-0.2906,-0.2923,-0.2972,-0.2979,-0.2958,-0.2961,-0.2981,-0.2979,-0.3035,-0.3045,-0.3011,-0.3011,-0.3011,0,-0.2421,-0.2449,-0.2502,-0.2526,-0.2551,-0.2589,-0.2616,-0.2648,-0.2675,-0.2725,-0.2748,-0.2794,-0.2832,-0.2903,-0.2939,-0.2984,-0.2992,-0.3009,-0.2999,-0.2991,-0.2994,-0.2992,-0.2996,-0.301,-0.301,-0.3011,-0.3011,0,-0.2454,-0.2468,-0.2505,-0.2549,-0.258,-0.2616,-0.2652,-0.2671,-0.2709,-0.2739,-0.2785,-0.2814,-0.2873,-0.2919,-0.2968,-0.2995,-0.301,-0.3013,-0.3021,-0.3014,-0.3001,-0.301,-0.2963,-0.3012,-0.3012,-0.3012,-0.3012,-0.3012,-0.2473,-0.2499,-0.254,-0.2582,-0.2612,-0.2646,-0.2675,-0.2704,-0.2742,-0.2792,-0.2809,-0.2856,-0.2898,-0.2965,-0.2992,-0.303,-0.303,-0.3041,-0.3044,-0.3046,-0.3046,-0.2994,-0.3039,-0.3039,-0.3039,-0.3039,-0.3039,0,-0.2507,-0.2534,-0.2572,-0.2622,-0.2655,-0.2664,-0.2705,-0.2733,-0.2773,-0.2811,-0.2848,-0.2901,-0.2945,-0.2985,-0.3031,-0.3054,-0.3062,-0.3066,-0.3065,-0.3071,-0.3043,-0.3032,-0.3058,-0.3058,-0.3058,-0.3058,-0.3058,-0.3058,-0.2529,-0.2574,-0.2594,-0.2655,-0.2682,-0.2728,-0.2751,-0.2782,-0.2812,-0.287,-0.2906,-0.2931,-0.297,-0.302,-0.3061,-0.3072,-0.3089,-0.309,-0.3103,-0.3075,-0.3073,-0.3071,-0.3061,-0.3093,-0.3093,-0.3128,-0.3129,-0.3129]},{"header":{"parameterUnit":"m.s-1","parameterCategory":1,"la1":30.2991,"la2":30.254,"lo1":-89.0895,"lo2":-89.0444,"dy":0.0017,"dx":0.0017,"nx":28,"ny":28,"refTime":"2024-10-09T09:00:00:Z","depth":0,"parameterNumber":3,"parameterNumberName":"V-component_of_WINDS"},"data":[0,0,0,0,0,0,0,0,0,0,0,0,0,0,0,0,0,0,0,0,0,0,0,0,0,0,0,0,0,0,0,0,0,0,0,0,0,0,0,0,0,0,0,0,0,0,0,0,0,0,0,0,0,0,0,0,0,0,-4.0422,-4.0422,0,-4.0483,-4.0483,-4.0484,-4.042,-4.0418,-4.0415,-4.0413,-4.0472,-4.0476,-4.048,0,0,0,0,0,0,0,0,0,0,0,0,0,-4.0248,-4.0252,-4.0422,-4.0423,-4.0423,-4.0483,-4.0483,-4.0484,-4.0421,-4.0418,-4.0415,-4.0412,-4.0471,-4.0475,-4.048,0,0,0,0,0,0,0,0,0,0,0,0,0,-4.0318,-4.0253,-4.0422,-4.0399,-4.0397,-4.0482,-4.0483,-4.0484,-4.0421,-4.0417,-4.0414,-4.041,-4.0469,-4.0475,-4.0481,-4.0591,0,0,-4.0499,-4.0501,0,0,0,0,0,0,0,0,-4.0314,-4.0324,-4.0401,-4.04,-4.0399,-4.044,-4.0444,-4.052,-4.0422,-4.0412,-4.0413,-4.0408,-4.0464,-4.047,-4.049,-4.0593,-4.0596,-4.0499,-4.0503,-4.0505,-4.0507,0,0,0,0,0,0,0,-4.0309,-4.0321,-4.0446,-4.0403,-4.0401,-4.0385,-4.039,-4.0458,-4.0458,-4.0413,-4.0408,-4.0416,-4.0463,-4.0484,-4.0491,-4.0597,-4.0499,-4.0504,-4.0508,-4.051,-4.0795,-4.0798,0,0,0,0,0,0,-4.0307,-4.0317,-4.0444,-4.0448,-4.0347,-4.0391,-4.0397,-4.0431,-4.0457,-4.0458,-4.0419,-4.0413,-4.0476,-4.0484,-4.0492,-4.0624,-4.0505,-4.051,-4.0514,-4.0791,-4.0795,-4.08,0,0,0,0,0,0,-4.0304,-4.0319,-4.0441,-4.0381,-4.0396,-4.0398,-4.0436,-4.0434,-4.0455,-4.0462,-4.0462,-4.0442,-4.0474,-4.0484,-4.0567,-4.0625,-4.0513,-4.0518,-4.0786,-4.0792,-4.0798,-4.0887,0,0,0,0,0,0,-4.0299,-4.0318,-4.036,-4.0383,-4.0399,-4.0516,-4.0439,-4.0438,-4.0466,-4.0458,-4.0483,-4.0483,-4.0471,-4.0559,-4.0573,-4.0631,-4.0523,-4.0781,-4.0789,-4.0796,-4.0879,-4.0895,-4.0909,0,0,0,0,0,-4.0293,-4.0382,-4.0363,-4.0378,-4.0452,-4.0519,-4.0529,-4.0514,-4.0471,-4.0513,-4.0518,-4.0483,-4.0616,-4.0568,-4.0583,-4.0644,-4.0777,-4.0786,-4.0795,-4.0872,-4.0892,-4.0909,0,0,0,0,0,0,-4.0365,-4.0385,-4.0363,-4.0463,-4.049,-4.0509,-4.0561,-4.0536,-4.0575,-4.0566,-4.0545,-4.0551,-4.064,-4.065,-4.0595,-4.0752,-4.0689,-4.0702,-4.0742,-4.0762,-4.0777,-4.0773,-4.0528,0,0,0,0,0,-4.0393,-4.0446,-4.046,-4.0546,-4.0561,-4.0559,-4.0588,-4.0575,-4.0602,-4.0613,-4.0623,-4.065,-4.0698,-4.073,-4.0775,-4.088,-4.0884,-4.0929,-4.0944,-4.0957,-4.0968,-4.1025,-4.1045,-4.083,-4.083,-4.083,0,0,-4.045,-4.0467,-4.0502,-4.0561,-4.0581,-4.0637,-4.0569,-4.0631,-4.0672,-4.0621,-4.0701,-4.071,-4.0738,-4.0833,-4.0876,-4.0844,-4.1029,-4.0968,-4.0978,-4.0983,-4.1037,-4.1057,-4.1075,-4.0836,-4.0835,-4.0834,0,0,-4.0583,-4.0601,-4.0676,-4.0697,-4.0729,-4.0727,-4.0745,-4.0768,-4.0772,-4.0852,-4.0815,-4.0863,-4.0946,-4.0969,-4.0991,-4.1134,-4.1103,-4.1149,-4.1229,-4.1285,-4.1302,-4.1317,-4.1369,-4.1388,-4.116,-4.116,-4.116,0,-4.065,-4.0733,-4.0717,-4.0782,-4.0809,-4.0768,-4.0843,-4.0864,-4.0908,-4.0927,-4.0892,-4.0996,-4.1012,-4.1112,-4.1148,-4.1166,-4.1186,-4.1146,-4.1301,-4.1316,-4.133,-4.1379,-4.1398,-4.1166,-4.1165,-4.1164,-4.1164,0,-4.0815,-4.0873,-4.0929,-4.0975,-4.1008,-4.1078,-4.1072,-4.1107,-4.1091,-4.1093,-4.1175,-4.1193,-4.1241,-4.1264,-4.1248,-4.1362,-4.1342,-4.1304,-4.1241,-4.1356,-4.1402,-4.142,-4.1173,-4.1171,-4.117,-4.1168,0,0,-4.0994,-4.1031,-4.1052,-4.1072,-4.1104,-4.1149,-4.1217,-4.1265,-4.1296,-4.1328,-4.1384,-4.1456,-4.1422,-4.1447,-4.1434,-4.1483,-4.1596,-4.1439,-4.1439,-4.1469,-4.1724,-4.1753,-4.1775,-4.1576,-4.158,-4.1582,-4.1722,0,-4.1129,-4.1249,-4.1236,-4.1349,-4.1404,-4.1365,-4.1424,-4.145,-4.1454,-4.15,-4.1503,-4.1555,-4.1505,-4.152,-4.1567,-4.1573,-4.1647,-4.1562,-4.1628,-4.1631,-4.1624,-4.1799,-4.183,-4.1961,-4.174,-4.1743,-4.1745,0,-4.1302,-4.1342,-4.1461,-4.1486,-4.1508,-4.1562,-4.1606,-4.165,-4.1679,-4.1678,-4.1707,-4.1685,-4.1753,-4.1688,-4.1781,-4.1724,-4.175,-4.1757,-4.1762,-4.1768,-4.1696,-4.1811,-4.2002,-4.2022,-4.1773,-4.1771,-4.1769,0,-4.1423,-4.1506,-4.1588,-4.1607,-4.1638,-4.1677,-4.1691,-4.1716,-4.1746,-4.1784,-4.1803,-4.1848,-4.1873,-4.1908,-4.1899,-4.1852,-4.1995,-4.1929,-4.1996,-4.1996,-4.2028,-4.2026,-4.2227,-4.2044,-4.2043,-4.2043,-4.2043,0,-4.1575,-4.165,-4.1643,-4.1694,-4.1777,-4.1762,-4.1844,-4.1853,-4.1876,-4.1927,-4.1896,-4.1944,-4.1929,-4.1977,-4.1969,-4.2048,-4.2059,-4.2061,-4.2058,-4.2064,-4.2064,-4.2082,-4.2073,-4.2048,-4.2047,-4.2046,-4.2045,0,-4.1724,-4.1723,-4.181,-4.1833,-4.184,-4.19,-4.1919,-4.1967,-4.1968,-4.2034,-4.2048,-4.2051,-4.2106,-4.21,-4.216,-4.2156,-4.2254,-4.224,-4.2245,-4.2242,-4.231,-4.2305,-4.253,-4.2559,-4.2356,-4.2358,-4.236,0,-4.1822,-4.1879,-4.1908,-4.1941,-4.1959,-4.2012,-4.2043,-4.2031,-4.2064,-4.2102,-4.2145,-4.2197,-4.2239,-4.2328,-4.2335,-4.2381,-4.2369,-4.2445,-4.2375,-4.238,-4.2371,-4.2368,-4.2374,-4.2458,-4.2461,-4.2463,-4.2464,0,-4.1996,-4.1993,-4.204,-4.2087,-4.2126,-4.2162,-4.2195,-4.2223,-4.2214,-4.2253,-4.231,-4.2342,-4.2406,-4.2458,-4.2503,-4.2516,-4.2489,-4.2486,-4.2504,-4.2511,-4.2513,-4.2514,-4.2284,-4.2481,-4.2479,-4.2478,-4.2477,-4.2476,-4.2123,-4.2172,-4.2201,-4.2255,-4.2279,-4.231,-4.2357,-4.2365,-4.2412,-4.2464,-4.2453,-4.2517,-4.2544,-4.2602,-4.262,-4.267,-4.2642,-4.2668,-4.2675,-4.2682,-4.269,-4.2504,-4.2677,-4.2677,-4.2676,-4.2676,-4.2676,0,-4.2296,-4.2313,-4.2363,-4.2411,-4.2453,-4.2425,-4.246,-4.2497,-4.2555,-4.2583,-4.2625,-4.2691,-4.2742,-4.2753,-4.2801,-4.2839,-4.2828,-4.2852,-4.285,-4.2854,-4.2712,-4.2692,-4.2861,-4.2861,-4.2861,-4.2861,-4.2861,-4.2861,-4.2391,-4.2474,-4.2474,-4.2568,-4.2584,-4.2648,-4.2671,-4.27,-4.2723,-4.2798,-4.2841,-4.2849,-4.287,-4.292,-4.2966,-4.2968,-4.2988,-4.3018,-4.3015,-4.2882,-4.2863,-4.2846,-4.2827,-4.3022,-4.3022,-4.3152,-4.3154,-4.3155]}]]